Location: *
(37.5724°S, 58.0067°E)
Time: 06:31:55
(UTC+00:00)

Genesis I - Pass Details

Date: 20 January 2021
Orbit: 489 x 532 km, 64.5° (Epoch: 02 March)

Event Time Altitude Azimuth Distance (km) Brightness Sun altitude
Exits shadow 21:12:35 11° 110° (ESE) 1,746 6.2 -31.1°
Drops below altitude 10° 21:12:41 10° 111° (ESE) 1,775 6.3 -31.1°
Sets 21:15:28 0° 131° (SE) 2,670 7.6 -31.0°
